Overview Statistics Trail Chart Weather Telemetry Raw packets
 

This is the latest recevied weather packets stored in our database for station/object WA6ODQ-13. If no packets are shown the sender has not sent any weather packets the latest 10 day(s).

<< 39 40 41 42 43 44 45 >>
Time Temp. Humidity Pressure Rain* Wind** Luminosity Snow
1788404154 20.56° C 59% 1013.1 hPa 0 mm - 0 W/m² -
1788403849 21.11° C 59% 1013.1 hPa 0 mm - 0 W/m² -
1788403548 21.11° C 58% 1013.1 hPa 0 mm - 1 W/m² -
1788403243 21.11° C 57% 1013 hPa 0 mm - 2 W/m² -
1788402939 21.67° C 56% 1013.2 hPa 0 mm - 4 W/m² -
1788402635 21.67° C 56% 1013.2 hPa 0 mm - 6 W/m² -
1788402333 21.67° C 56% 1013.2 hPa 0 mm - 8 W/m² -
1788402033 21.67° C 56% 1013.1 hPa 0 mm - 11 W/m² -
1788401727 22.22° C 56% 1013.1 hPa 0 mm - 14 W/m² -
1788401422 22.22° C 55% 1013.4 hPa 0 mm - 16 W/m² -
1788401118 22.78° C 55% 1013.1 hPa 0 mm - 19 W/m² -
1788400818 22.78° C 54% 1013.4 hPa 0 mm - 23 W/m² -
1788400513 23.33° C 53% 1013.3 hPa 0 mm - 35 W/m² -
1788400209 23.33° C 54% 1013.3 hPa 0 mm - 41 W/m² -
1788399908 23.33° C 54% 1013.5 hPa 0 mm - 46 W/m² -
1788399603 23.89° C 53% 1013.5 hPa 0 mm - 54 W/m² -
1788399297 23.89° C 53% 1013.4 hPa 0 mm - 60 W/m² -
1788398996 23.89° C 52% 1013.5 hPa 0 mm - 71 W/m² -
1788398696 24.44° C 51% 1013.2 hPa 0 mm - 78 W/m² -
1788398395 25° C 51% 1013.6 hPa 0 mm - 88 W/m² -
1788398089 24.44° C 51% 1013.6 hPa 0 mm - 99 W/m² -
1788397785 24.44° C 51% 1013.5 hPa 0 mm - 110 W/m² -
1788397480 24.44° C 51% 1013.5 hPa 0 mm - 120 W/m² -
1788397177 24.44° C 50% 1013.3 hPa 0 mm - 131 W/m² -
1788396873 25° C 49% 1013.5 hPa 0 mm - 144 W/m² -

* Rain latest hour (hover to see other rain measurements)
** Current wind speed in m/s (hover to see current wind gust speed)